[Date Prev][Date Next][Thread Prev][Thread Next] - [Date Index][Thread Index][Author Index]
2 Line ISS Keps 6-8
- Subject: [sarex] 2 Line ISS Keps 6-8
- From: "Dave Larsen PhD" <doc@xxxxxxxxxxx>
- Date: Tue, 8 Jun 2004 06:29:39 -0700
ISS
1 25544U 98067A 04160.42390752 .00014992 00000-0 13290-3 0 9491
2 25544 51.6329 10.4117 0005395 206.7073 225.7658 15.68815833316945
----
Via the sarex mailing list at AMSAT.ORG courtesy of AMSAT-NA.
To unsubscribe, send "unsubscribe sarex" to Majordomo@amsat.org
AMSAT Home